Zurück zum Katalog

KUIPER-00110

AktivKommunikationLEO
NORAD 65148·PAYLOAD·🇺🇸 United States

Gestartet Aug 11, 2025 von Cape Canaveral Space Force Station

Loading…

Nächste Überflüge (nächste 24 Stunden)

TLE

AktuellSource: CelesTrak SupGP

Epoche: Sep 14, 2026, 21:24 UTC

1 65148C 25171S   26257.89214120  .00006880  00000+0  90059-3 0  2573
2 65148  51.9001  51.4800 0000587 113.6788 103.2323 14.79927388    17

Verfolge KUIPER-00110 in Echtzeit mit AllMySat

Download on the App Store